Date_and_time,latitude,longitude,wind_speed,RelWindDirFrom,WindDirFrom,air_pressure,air_temperature,relative_humidity,Temp,platform_speed_wrt_ground,air_pressure_at_mean_sea_level,platform_orientation
2019-02-09 23:50,50.6304466666667,-96.980765,5.6,7.2,201,1012.59,-23.5,61,0.33,0.0,1043.73,270.0
2019-02-10 00:00,50.6304466666667,-96.98077,4.5,5.3,199,1012.54,-23.6,61,0.34,0.0,1043.70,194.5
2019-02-10 00:10,50.6304466666667,-96.9807733333333,4.6,5.7,199,1012.56,-23.7,62,0.34,0.0,1043.71,194.5
2019-02-10 00:20,50.6304483333333,-96.9807716666667,5.4,6.9,196,1012.61,-24.2,62,0.34,0.0,1043.78,194.5
2019-02-10 00:30,50.6304483333333,-96.98077,5.5,6.6,198,1012.66,-24.4,63,0.34,0.0,1043.87,194.5
2019-02-10 00:40,50.6304616666667,-96.98079,5.9,7.1,194,1012.67,-24.5,64,0.35,0.0,1043.90,194.5
2019-02-10 00:50,50.63042,-96.98077,6.4,7.3,195,1012.61,-24.7,64,0.35,0.0,1043.88,194.5
2019-02-10 01:00,50.6304333333333,-96.9807666666667,5.8,6.8,190,1012.50,-24.7,64,0.36,0.0,1043.79,360.0
2019-02-10 01:10,50.630435,-96.9807666666667,4.4,5.9,206,1012.48,-24.7,65,0.36,0.0,1043.79,360.0
2019-02-10 01:20,50.630435,-96.9807666666667,5.1,6.1,216,1012.38,-24.5,64,0.36,0.0,1043.69,360.0
2019-02-10 01:30,50.63044,-96.9807683333333,5.0,6.0,222,1012.23,-24.7,64,0.36,0.0,1043.57,360.0
2019-02-10 01:40,50.63044,-96.98077,5.0,6.2,216,1012.04,-25.0,65,0.36,0.0,1043.40,360.0
2019-02-10 01:50,50.6304416666667,-96.9807716666667,4.1,5.2,237,1011.95,-25.0,66,0.36,0.0,1043.32,360.0
2019-02-10 02:00,50.6304433333333,-96.9807733333333,3.8,4.7,239,1011.93,-24.9,66,0.36,0.0,1043.31,360.0
2019-02-10 02:10,50.630445,-96.9807716666667,3.2,4.3,222,1011.84,-25.3,66,0.36,0.0,1043.27,360.0
2019-02-10 02:20,50.630445,-96.98077,3.8,4.6,222,1011.77,-25.7,68,0.36,0.0,1043.22,360.0
2019-02-10 02:30,50.630445,-96.9807683333333,4.4,5.0,242,1011.73,-25.4,68,0.36,0.0,1043.17,360.0
2019-02-10 02:40,50.6304466666667,-96.98077,3.4,4.7,236,1011.75,-25.1,68,0.35,0.0,1043.19,360.0
2019-02-10 02:50,50.63045,-96.9807866666667,2.7,3.2,207,1011.75,-25.5,68,0.34,0.0,1043.21,360.0
2019-02-10 03:00,50.6304733333333,-96.9807416666667,3.7,4.4,207,1011.77,-26.1,69,0.34,0.0,1043.28,27.2
2019-02-10 03:10,50.6304533333333,-96.980765,3.8,4.6,223,1011.75,-25.6,71,0.34,0.0,1043.21,27.2
2019-02-10 03:20,50.6304133333333,-96.9807616666667,4.0,5.4,246,1011.65,-25.0,72,0.34,0.0,1043.07,27.2
2019-02-10 03:30,50.6304483333333,-96.9807666666667,4.3,5.9,257,1011.64,-24.5,71,0.34,0.0,1043.05,27.2
2019-02-10 03:40,50.6304483333333,-96.9807666666667,3.6,4.8,278,1011.57,-24.6,72,0.34,0.0,1042.99,27.2
2019-02-10 03:50,50.6304483333333,-96.980765,2.7,4.2,266,1011.57,-24.8,72,0.34,0.0,1043.01,27.2
2019-02-10 04:00,50.63045,-96.980765,2.0,3.0,265,1011.67,-24.9,73,0.34,0.0,1043.13,360.0
2019-02-10 04:10,50.63045,-96.980765,2.5,3.3,244,1011.68,-25.2,74,0.34,0.0,1043.18,360.0
2019-02-10 04:20,50.63045,-96.980765,2.8,4.8,273,1011.68,-25.4,74,0.34,0.0,1043.18,360.0
2019-02-10 04:30,50.63045,-96.9807666666667,3.2,4.4,241,1011.65,-25.6,75,0.34,0.0,1043.14,360.0
2019-02-10 04:40,50.630465,-96.9807833333333,3.2,4.3,216,1011.60,-25.9,75,0.34,0.0,1043.14,360.0
2019-02-10 04:50,50.6304516666667,-96.98079,2.9,3.8,215,1011.64,-26.2,75,0.34,0.0,1043.25,360.0
2019-02-10 05:00,50.6304483333333,-96.980765,2.3,3.5,210,1011.63,-26.9,74,0.33,0.0,1043.24,12.6
2019-02-10 05:10,50.6304483333333,-96.980765,3.4,4.3,235,1011.51,-26.7,76,0.34,0.0,1043.06,12.6
2019-02-10 05:20,50.6304483333333,-96.9807633333333,3.9,5.3,261,1011.24,-25.8,77,0.35,0.0,1042.70,12.6
2019-02-10 05:30,50.63045,-96.9807633333333,4.0,5.3,270,1011.13,-25.6,77,0.36,0.0,1042.58,12.6
2019-02-10 05:40,50.63045,-96.9807716666667,2.8,4.1,264,1011.09,-25.7,76,0.37,0.0,1042.56,12.6
2019-02-10 05:50,50.6304583333333,-96.98077,3.4,4.5,231,1011.01,-26.1,76,0.38,0.0,1042.51,12.6
2019-02-10 06:00,50.630455,-96.9807783333333,3.1,4.5,251,1011.05,-26.0,76,0.39,0.0,1042.55,229.4
2019-02-10 06:10,50.6304433333333,-96.9807833333333,2.8,3.8,263,1011.00,-25.8,76,0.40,0.0,1042.51,229.4
2019-02-10 06:20,50.6304583333333,-96.9807766666667,3.4,4.7,226,1010.99,-26.5,75,0.40,0.0,1042.55,229.4
2019-02-10 06:30,50.6304033333333,-96.9807716666667,3.3,4.2,202,1010.97,-27.8,74,0.41,0.0,1042.64,229.4
2019-02-10 06:40,50.6304466666667,-96.980785,1.8,2.9,232,1010.93,-27.7,74,0.41,0.0,1042.61,229.4
2019-02-10 06:50,50.630415,-96.9807833333333,2.0,2.5,240,1010.79,-27.4,75,0.41,0.0,1042.49,229.4
2019-02-10 07:00,50.6304383333333,-96.9807816666667,2.2,2.9,240,1010.68,-27.1,76,0.41,0.0,1042.35,229.4
2019-02-10 07:10,50.6304683333333,-96.980785,2.4,3.2,255,1010.47,-26.8,75,0.41,0.0,1042.06,229.4
2019-02-10 07:20,50.63047,-96.9807816666667,2.0,3.1,229,1010.51,-26.9,75,0.42,0.0,1042.08,229.4
2019-02-10 07:30,50.6304366666667,-96.98074,2.4,3.2,196,1010.44,-27.8,73,0.42,0.0,1042.08,229.4
2019-02-10 07:40,50.6304366666667,-96.98076,1.7,2.4,194,1010.45,-28.2,73,0.41,0.0,1042.14,229.4
2019-02-10 07:50,50.6304416666667,-96.980765,2.3,3.4,172,1010.50,-28.9,72,0.41,0.0,1042.23,229.4
2019-02-10 08:00,50.6304433333333,-96.9807683333333,2.0,2.6,201,1010.43,-30.0,71,0.41,0.0,1042.22,360.0
2019-02-10 08:10,50.6304416666667,-96.980775,1.6,2.6,200,1010.45,-29.2,73,0.41,0.0,1042.23,360.0
2019-02-10 08:20,50.6304483333333,-96.980765,1.9,2.8,203,1010.40,-29.6,72,0.41,0.0,1042.30,360.0
2019-02-10 08:30,50.6304466666667,-96.9807766666667,2.0,2.4,235,1010.34,-28.4,74,0.42,0.0,1042.14,360.0
2019-02-10 08:40,50.6304366666667,-96.9807666666667,1.7,2.2,201,1010.39,-28.7,72,0.42,0.0,1042.19,360.0
2019-02-10 08:50,50.6304466666667,-96.98077,1.8,2.7,195,1010.42,-29.5,71,0.42,0.0,1042.26,360.0
2019-02-10 09:00,50.6304516666667,-96.9807683333333,2.8,3.2,226,1010.38,-29.1,72,0.42,0.0,1042.17,90.0
2019-02-10 09:10,50.6304516666667,-96.98077,2.5,3.5,234,1010.37,-27.8,74,0.42,0.0,1042.08,90.0
2019-02-10 09:20,50.6304466666667,-96.9807483333333,3.3,4.3,215,1010.44,-28.3,72,0.42,0.0,1042.24,90.0
2019-02-10 09:30,50.6304516666667,-96.98076,3.7,4.4,234,1010.36,-28.1,73,0.42,0.0,1042.18,90.0
2019-02-10 09:40,50.6304533333333,-96.9807633333333,2.1,3.6,262,1010.26,-27.5,73,0.42,0.0,1042.09,90.0
2019-02-10 09:50,50.6304533333333,-96.9807666666667,3.2,4.3,235,1010.24,-27.7,73,0.42,0.0,1042.15,90.0
2019-02-10 10:00,50.6304533333333,-96.9807816666667,2.2,3.4,265,1010.20,-27.7,73,0.42,0.0,1042.06,38.0
2019-02-10 10:10,50.6304566666667,-96.9807516666667,1.9,2.9,247,1010.21,-27.7,73,0.42,0.0,1042.10,38.0
2019-02-10 10:20,50.6304616666667,-96.98076,2.4,3.2,231,1010.34,-27.9,73,0.42,0.0,1042.15,38.0
2019-02-10 10:30,50.63046,-96.98076,1.7,2.7,206,1010.35,-29.2,71,0.41,0.0,1042.27,38.0
2019-02-10 10:40,50.6304583333333,-96.9807633333333,0.9,2.6,241,1010.30,-29.3,71,0.41,0.0,1042.28,38.0
2019-02-10 10:50,50.6304566666667,-96.980765,2.6,4.2,174,1010.40,-30.4,70,0.41,0.0,1042.43,38.0
2019-02-10 11:00,50.6304566666667,-96.9807666666667,3.1,4.7,178,1010.31,-31.5,69,0.40,0.0,1042.33,360.0
2019-02-10 11:10,50.630455,-96.9807666666667,1.0,2.8,242,1010.15,-30.4,71,0.40,0.0,1042.12,360.0
2019-02-10 11:20,50.6304516666667,-96.9807583333333,2.0,2.5,297,1010.01,-29.1,72,0.40,0.0,1041.88,360.0
2019-02-10 11:30,50.6304516666667,-96.980755,1.0,2.3,284,1009.99,-28.9,72,0.40,0.0,1041.80,360.0
2019-02-10 11:40,50.630445,-96.98077,2.2,3.8,325,1009.85,-29.1,71,0.40,0.0,1041.68,360.0
2019-02-10 11:50,50.6304533333333,-96.9807716666667,1.3,3.0,194,1009.99,-30.0,70,0.39,0.0,1041.89,360.0
2019-02-10 12:00,50.630445,-96.9807783333333,1.6,2.1,207,1009.87,-30.6,70,0.39,0.0,1041.81,222.8
2019-02-10 12:10,50.6304416666667,-96.980775,1.1,1.9,236,1009.78,-29.5,71,0.39,0.0,1041.66,222.8
2019-02-10 12:20,50.6304433333333,-96.9807733333333,0.2,1.3,277,1009.65,-29.4,71,0.39,0.0,1041.61,222.8
2019-02-10 12:30,50.630445,-96.9807733333333,2.2,3.1,303,1009.43,-29.2,72,0.39,0.0,1041.37,222.8
2019-02-10 12:40,50.630445,-96.9807733333333,2.2,3.2,291,1009.31,-29.5,71,0.39,0.0,1041.33,222.8
2019-02-10 12:50,50.6304816666667,-96.9807816666667,3.4,4.3,316,1009.12,-29.2,72,0.39,0.0,1041.19,222.8
2019-02-10 13:00,50.63046,-96.9807766666667,3.3,4.2,318,1009.07,-29.0,72,0.39,0.0,1041.06,54.7
2019-02-10 13:10,50.6304583333333,-96.9807766666667,1.4,3.4,289,1009.13,-29.3,71,0.39,0.0,1041.05,54.7
2019-02-10 13:20,50.6304533333333,-96.9807766666667,5.3,6.8,174,1009.26,-31.8,68,0.39,0.0,1041.33,54.7
2019-02-10 13:30,50.630455,-96.98077,2.2,4.3,215,1009.28,-32.6,68,0.39,0.0,1041.42,54.7
2019-02-10 13:40,50.6304533333333,-96.9807683333333,2.0,3.6,222,1009.36,-31.8,69,0.39,0.0,1041.52,54.7
2019-02-10 13:50,50.6304516666667,-96.9807683333333,3.2,4.0,207,1009.46,-32.6,67,0.39,0.0,1041.71,54.7
2019-02-10 14:00,50.63045,-96.9807683333333,2.7,3.9,243,1009.43,-31.7,69,0.39,0.0,1041.55,90.0
2019-02-10 14:10,50.63045,-96.98077,2.0,2.9,252,1009.46,-30.5,70,0.39,0.0,1041.50,90.0
2019-02-10 14:20,50.6304483333333,-96.9807683333333,1.8,2.4,257,1009.45,-30.0,70,0.39,0.0,1041.44,90.0
2019-02-10 14:30,50.6304466666667,-96.980765,1.3,2.1,266,1009.40,-29.1,70,0.38,0.0,1041.34,90.0
2019-02-10 14:40,50.6304466666667,-96.9807683333333,2.1,3.4,246,1009.45,-28.8,70,0.38,0.0,1041.35,90.0
2019-02-10 14:50,50.6304466666667,-96.9807683333333,2.0,3.0,278,1009.33,-28.4,70,0.38,0.0,1041.19,90.0
2019-02-10 15:00,50.6304466666667,-96.9807666666667,1.8,3.0,283,1009.24,-28.0,70,0.39,0.0,1041.09,66.4
2019-02-10 15:10,50.6304466666667,-96.9807666666667,1.2,2.5,318,1009.15,-27.3,70,0.38,0.0,1041.13,66.4
2019-02-10 15:20,50.6304483333333,-96.9807666666667,0.0,0.0,0,1009.11,-26.3,70,0.38,0.0,1041.06,66.4
2019-02-10 15:30,50.6304266666667,-96.98076,1.1,2.1,277,1009.01,-26.0,69,0.38,0.0,1040.89,66.4
2019-02-10 15:40,50.6304483333333,-96.9807633333333,0.5,1.7,295,1008.85,-25.2,70,0.38,0.0,1040.72,66.4
2019-02-10 15:50,50.6304516666667,-96.98077,1.6,3.0,319,1008.72,-24.3,70,0.39,0.0,1040.46,66.4
2019-02-10 16:00,50.6304483333333,-96.980765,2.7,3.2,333,1008.55,-25.4,68,0.39,0.0,1040.29,165.5
2019-02-10 16:10,50.6304466666667,-96.980765,1.4,2.6,335,1008.38,-24.5,71,0.39,0.0,1040.02,165.5
2019-02-10 16:20,50.6304483333333,-96.9807666666667,0.2,0.8,337,1008.36,-23.0,71,0.39,0.0,1039.85,165.5
2019-02-10 16:30,50.6304483333333,-96.9807666666667,0.0,0.3,0,1008.33,-22.6,68,0.39,0.0,1039.76,165.5
2019-02-10 16:40,50.6304483333333,-96.98077,0.0,0.9,0,1008.26,-22.7,66,0.39,0.0,1039.68,165.5
2019-02-10 16:50,50.6304483333333,-96.9807716666667,0.9,1.9,109,1008.27,-23.0,67,0.38,0.0,1039.67,165.5
2019-02-10 17:00,50.6304483333333,-96.98077,2.1,3.2,119,1008.35,-22.2,66,0.38,0.0,1039.67,360.0
2019-02-10 17:10,50.6304483333333,-96.9807716666667,2.8,4.3,69,1008.44,-22.5,65,0.38,0.0,1039.71,360.0
2019-02-10 17:20,50.6304483333333,-96.9807716666667,3.9,4.9,23,1008.38,-24.2,66,0.39,0.0,1039.75,360.0
2019-02-10 17:30,50.6304333333333,-96.9807633333333,4.1,5.0,16,1008.16,-24.3,68,0.39,0.0,1039.47,360.0
2019-02-10 17:40,50.6304516666667,-96.9807783333333,3.9,5.2,21,1008.11,-24.0,68,0.39,0.0,1039.34,360.0
2019-02-10 17:50,50.6304483333333,-96.98077,5.0,6.0,23,1008.09,-23.8,69,0.39,0.0,1039.38,360.0
2019-02-10 18:00,50.6304483333333,-96.9807683333333,5.7,7.2,13,1007.97,-23.7,69,0.38,0.0,1039.19,0.0
2019-02-10 18:10,50.6304483333333,-96.9807716666667,4.9,5.7,19,1007.89,-23.5,69,0.39,0.0,1039.00,0.0
2019-02-10 18:20,50.6304483333333,-96.98077,4.7,5.5,21,1007.80,-23.2,69,0.40,0.0,1038.85,0.0
2019-02-10 18:30,50.6304483333333,-96.9807716666667,4.8,5.6,25,1007.74,-22.9,69,0.40,0.0,1038.79,0.0
2019-02-10 18:40,50.6304483333333,-96.9807716666667,3.3,4.5,32,1007.70,-22.6,69,0.40,0.0,1038.75,0.0
2019-02-10 18:50,50.63044,-96.98078,1.6,2.5,47,1007.70,-21.7,68,0.40,0.0,1038.64,0.0
2019-02-10 19:00,50.630445,-96.9807783333333,1.3,2.3,80,1007.77,-20.2,65,0.40,0.0,1038.64,246.4
2019-02-10 19:10,50.6304483333333,-96.9807783333333,1.6,2.4,83,1007.70,-18.7,59,0.40,0.0,1038.59,246.4
2019-02-10 19:20,50.6304483333333,-96.980775,1.8,2.7,65,1007.46,-19.6,61,0.40,0.0,1038.39,246.4
2019-02-10 19:30,50.6304516666667,-96.9807733333333,1.1,2.1,93,1007.38,-19.1,59,0.40,0.0,1038.26,246.4
2019-02-10 19:40,50.6304433333333,-96.9807583333333,0.4,1.2,122,1007.33,-18.8,58,0.40,0.0,1038.18,246.4
2019-02-10 19:50,50.630445,-96.98076,0.2,1.0,91,1007.26,-18.4,57,0.40,0.0,1038.07,246.4
2019-02-10 20:00,50.6304516666667,-96.9807666666667,0.6,1.6,85,1007.20,-17.6,54,0.40,0.0,1037.95,360.0
2019-02-10 20:10,50.6304233333333,-96.98074,2.0,2.6,51,1006.97,-19.2,60,0.40,0.0,1037.79,360.0
2019-02-10 20:20,50.6304466666667,-96.9807666666667,2.2,2.7,44,1006.78,-20.7,65,0.40,0.0,1037.68,360.0
2019-02-10 20:30,50.6304483333333,-96.9807633333333,2.4,3.3,34,1006.57,-21.2,68,0.41,0.0,1037.46,360.0
2019-02-10 20:40,50.6304583333333,-96.9807483333333,3.3,3.9,24,1006.31,-21.2,69,0.41,0.0,1037.15,360.0
2019-02-10 20:50,50.6304483333333,-96.9807483333333,3.1,3.7,25,1006.17,-21.2,69,0.41,0.0,1036.91,360.0
2019-02-10 21:00,50.63045,-96.9807583333333,3.4,4.0,26,1006.05,-21.1,69,0.41,0.0,1036.69,12.6
2019-02-10 21:10,50.6304516666667,-96.9807616666667,2.8,3.4,34,1005.93,-20.8,69,0.41,0.0,1036.61,12.6
2019-02-10 21:20,50.63044,-96.9807566666667,2.9,3.4,37,1005.75,-20.7,70,0.41,0.0,1036.37,12.6
2019-02-10 21:30,50.6304433333333,-96.980755,3.3,4.0,31,1005.68,-20.6,70,0.41,0.0,1036.28,12.6
2019-02-10 21:40,50.63045,-96.9807583333333,3.4,4.2,23,1005.61,-20.8,70,0.41,0.0,1036.20,12.6
2019-02-10 21:50,50.6304516666667,-96.98076,3.7,4.5,30,1005.55,-20.8,71,0.42,0.0,1036.08,12.6
2019-02-10 22:00,50.6304483333333,-96.980775,4.3,5.3,25,1005.46,-20.9,71,0.42,0.0,1036.10,54.7
2019-02-10 22:10,50.6304516666667,-96.9807716666667,4.7,5.6,15,1005.28,-21.0,71,0.42,0.0,1036.01,54.7
2019-02-10 22:20,50.6304516666667,-96.9807716666667,5.2,6.5,18,1005.23,-21.5,73,0.42,0.0,1036.02,54.7
2019-02-10 22:30,50.6304483333333,-96.9807783333333,5.9,7.1,13,1005.11,-21.6,72,0.42,0.0,1035.91,54.7
2019-02-10 22:40,50.6304466666667,-96.9807733333333,6.3,7.5,7,1005.04,-21.7,72,0.42,0.0,1035.83,54.7
2019-02-10 22:50,50.630445,-96.9807666666667,6.1,6.6,7,1004.98,-22.0,72,0.42,0.0,1035.79,54.7
2019-02-10 23:00,50.6304483333333,-96.9807816666667,6.9,8.1,6,1004.85,-22.2,73,0.42,0.0,1035.65,246.4
2019-02-10 23:10,50.6304466666667,-96.980775,5.6,6.5,6,1004.80,-22.2,74,0.42,0.0,1035.59,246.4
2019-02-10 23:20,50.63045,-96.9807733333333,4.5,5.1,12,1004.75,-22.4,74,0.42,0.0,1035.54,246.4
2019-02-10 23:30,50.6304483333333,-96.9807733333333,4.2,5.3,8,1004.68,-22.7,75,0.43,0.0,1035.50,246.4
2019-02-10 23:40,50.6304483333333,-96.9807716666667,3.2,4.1,358,1004.54,-22.9,76,0.44,0.0,1035.37,246.4
2019-02-10 23:50,50.6304466666667,-96.9807716666667,3.1,3.6,356,1004.48,-22.8,75,0.43,0.0,1035.31,246.4
